Weather in Lahinch

Ireland     52°55′54″N   9°20′25″W
temp.,
°C
wind,
m/s
gust,
m/s
humid.,
%
clouds,
%
prec.,
mm/h
press.,
hPa
HPBL,
m
6 march, sat
sat600:00+1se5108654 0.0 1034344
03:00−1se489166 0.0 1033229
06:000se5118859 0.0 1033278
09:00+3se497976 0.0 1032385
12:00+6sse577088 0.0 1033770
15:00+7s3571100 0.0 1031938
18:00+6s1280100 0.0 1031107
21:00+3se238783 0.0 103078
7 march, sun
sun700:00+1sse239158 0.0 103167
03:00+1se23905 0.0 102962
06:00+1sse238618 0.0 102880
09:00+3sse238088 0.0 1028107
12:00+7sw347491 0.0 1028382
15:00+7wsw357726 0.0 1026396
18:00+5wsw238628 0.0 1026124
21:00+5wsw358962 0.0 1026184
8 march, mon
mon800:00+5ssw359076 0.0 1025141
03:00+3s34915 0.0 1024107
06:00+2s349127 0.0 1023126
09:00+4sse478390 0.0 1022294
12:00+7s598495 0.3 1021534
15:00+7s51092100 1.3 1020528
18:00+7sw589599 1.4 1019295
21:00+7ssw4996100 0.3 1019280
9 march, tue
tue900:00+6ssw3696100 0.6 1018152
03:00+6ssw369698 0.2 1017180
06:00+5sse479699 0.4 1015189
09:00+7s51193100 0.4 1013533
12:00+9ssw71088100 0.8 10101011
15:00+8s81792100 2.2 10031113
18:00+9ssw122395100 9.4 9981262
21:00+9wsw91592100 1.6 998909
10 march, wed
wed1000:00+7w11158272 1.6 10001008
03:00+6w101475100 0.1 10021257
06:00+5w71177100 0.1 1002749
09:00+6sw6980100 0.0 10001084
12:00+5sse61092100 2.3 995622
15:00+10ssw132397100 8.6 9871094
18:00+10sw152588100 11.1 9831638
21:00+8sw182884100 1.3 9781782